Weather History for Newburgh, NY

Change the Weather History Date:

Wednesday, July 10, 2013

  Actual Average Record
Temperature  
Mean Temperature 78 °F -  
Max Temperature 84 °F 80 °F 96 °F (1993)
Min Temperature 73 °F 59 °F 44 °F (1983)
Cooling Degree Days 14    
Growing Degree Days 28 (Base 50)    
Moisture  
Dew Point 72 °F    
Average Humidity 82    
Maximum Humidity 89    
Minimum Humidity 70    
Precipitation  
Precipitation 0.00 in - - ()
Sea Level Pressure  
Sea Level Pressure 29.92 in    
Wind  
Wind Speed 2 mph (WSW)    
Max Wind Speed 8 mph    
Max Gust Speed -    
Visibility 8 miles    
Events      
Averages and records for this station are not official NWS values.
T = Trace of Precipitation, MM = Missing Value Source: NWS Daily Summary

Daily Weather History Graph

Daily Weather History Graph

Search for Another Location

Airport:

Trip Planner

Search our weather history database for the weather conditions in past years. The results will help you decide how hot, cold, wet, or windy it might be!

Date:

Astronomy

Jul. 10, 2013 Rise Set
Actual Time 5:32 AM EDT 8:31 PM EDT
Civil Twilight 4:58 AM EDT 9:04 PM EDT
Nautical Twilight 4:16 AM EDT 9:46 PM EDT
Astronomical Twilight 3:26 AM EDT 10:36 PM EDT
Moon 7:52 AM EDT (7/10) 9:37 PM EDT (7/10)
Length of Visible Light 16h 05m
Length of Day
14h 59m
Waxing Crescent, 5% of the Moon is Illuminated
Jul 10
Waxing Crescent
Jul 15
First Quarter
Jul 22
Full
Jul 29
Last Quarter
Aug 6
New

Hourly Weather History & Observations

Time (EDT) Temp. Heat Index Dew Point Humidity Pressure Visibility Wind Dir Wind Speed Gust Speed Precip Events Conditions
12:45 AM 75.2 °F - 68.0 °F 78% 30.03 in 10.0 mi Calm Calm - N/A   Mostly Cloudy
1:45 AM 75.2 °F - 68.0 °F 78% 30.01 in 10.0 mi Calm Calm - N/A   Overcast
2:45 AM 73.4 °F - 68.0 °F 83% 30.00 in 10.0 mi Calm Calm - N/A   Overcast
3:45 AM 73.4 °F - 69.8 °F 88% 29.99 in 6.0 mi Calm Calm - N/A   Overcast
4:45 AM 73.4 °F - 69.8 °F 88% 29.98 in 6.0 mi Calm Calm - N/A   Overcast
6:45 AM 73.4 °F - 69.8 °F 88% 29.98 in 6.0 mi Calm Calm - N/A   Overcast
7:45 AM 75.2 °F - 71.6 °F 89% 29.97 in 5.0 mi Calm Calm - N/A   Overcast
8:45 AM 77.0 °F - 71.6 °F 83% 29.97 in 3.0 mi Calm Calm - N/A   Overcast
9:45 AM 77.0 °F - 73.4 °F 89% 29.96 in 3.0 mi Calm Calm - N/A   Overcast
10:50 AM 78.8 °F - 75.2 °F 89% 29.94 in 3.0 mi Calm Calm - N/A   Overcast
11:45 AM 80.6 °F 86.2 °F 75.2 °F 84% 29.93 in 7.0 mi West 8.1 mph - N/A   Mostly Cloudy
12:45 PM 84.2 °F 90.9 °F 73.4 °F 70% 29.90 in 7.0 mi West 8.1 mph - N/A   Mostly Cloudy
4:45 PM 80.6 °F 86.2 °F 75.2 °F 84% 29.83 in 10.0 mi WSW 8.1 mph - N/A   Mostly Cloudy
5:45 PM 80.6 °F 85.4 °F 73.4 °F 79% 29.83 in 10.0 mi WSW 6.9 mph - N/A   Mostly Cloudy
6:50 PM 82.4 °F 88.2 °F 73.4 °F 74% 29.84 in 10.0 mi WSW 6.9 mph - N/A   Scattered Clouds
7:50 PM 80.6 °F 84.6 °F 71.6 °F 74% 29.85 in 10.0 mi WSW 6.9 mph - N/A   Scattered Clouds
8:50 PM 78.8 °F - 71.6 °F 78% 29.85 in 10.0 mi WSW 6.9 mph - N/A   Scattered Clouds
9:50 PM 78.8 °F - 71.6 °F 78% 29.86 in 10.0 mi WSW 6.9 mph - N/A   Scattered Clouds
10:45 PM 77.0 °F - 71.6 °F 83% 29.86 in 10.0 mi West 5.8 mph - N/A   Scattered Clouds
11:45 PM 77.0 °F - 71.6 °F 83% 29.85 in 10.0 mi West 6.9 mph - N/A   Scattered Clouds